Meteo pe oră la Dachow

Astăzi, 11 Aprilie, Duminică

Timp Temperatura Precipitaţii Vânt Presiune Umiditate
00:00 +4°C° 0 mm 3 m/s 754 mmHg 95%
01:00 +4°C° 0 mm 3 m/s 753 mmHg 95%
02:00 +4°C° 0 mm 3 m/s 753 mmHg 95%
03:00 +4°C° 0 mm 3 m/s 753 mmHg 95%
04:00 +4°C° 0 mm 3 m/s 752 mmHg 94%
05:00 +5°C° 0 mm 3 m/s 752 mmHg 91%
06:00 +7°C° 0 mm 3 m/s 752 mmHg 87%
07:00 +8°C° 0 mm 3 m/s 752 mmHg 84%
08:00 +9°C° 0 mm 3 m/s 752 mmHg 76%
09:00 +11°C° 0 mm 3 m/s 752 mmHg 68%
10:00 +13°C° 0 mm 4 m/s 752 mmHg 60%
11:00 +14°C° 0 mm 3 m/s 752 mmHg 55%
12:00 +17°C° 0 mm 3 m/s 751 mmHg 50%
13:00 +18°C° 0 mm 3 m/s 751 mmHg 45%
14:00 +18°C° 0 mm 3 m/s 751 mmHg 45%
15:00 +18°C° 0 mm 3 m/s 751 mmHg 46%
16:00 +18°C° 0 mm 3 m/s 751 mmHg 47%
17:00 +16°C° 0 mm 3 m/s 751 mmHg 55%
18:00 +13°C° 0 mm 3 m/s 751 mmHg 63%
19:00 +12°C° 0 mm 2 m/s 751 mmHg 72%
20:00 +12°C° 0 mm 2 m/s 751 mmHg 74%
21:00 +10°C° 0 mm 2 m/s 751 mmHg 76%
22:00 +10°C° 0 mm 2 m/s 752 mmHg 78%
23:00 +9°C° 0 mm 2 m/s 752 mmHg 80%

Mâine, 12 Aprilie, Luni

Timp Temperatura Precipitaţii Vânt Presiune Umiditate
00:00 +9°C° 0 mm 2 m/s 752 mmHg 83%
01:00 +8°C° 0 mm 2 m/s 752 mmHg 85%
02:00 +8°C° 0 mm 3 m/s 753 mmHg 86%
03:00 +7°C° 0 mm 3 m/s 753 mmHg 87%
04:00 +6°C° 0 mm 4 m/s 753 mmHg 89%
05:00 +5°C° 0 mm 4 m/s 754 mmHg 87%
06:00 +5°C° 0 mm 4 m/s 755 mmHg 86%
07:00 +4°C° 0 mm 4 m/s 756 mmHg 85%
08:00 +4°C° 0.1 mm 4 m/s 756 mmHg 87%
09:00 +4°C° 0.1 mm 4 m/s 757 mmHg 89%
10:00 +3°C° 0.1 mm 4 m/s 757 mmHg 90%
11:00 +3°C° 0.1 mm 4 m/s 758 mmHg 91%
12:00 +3°C° 0.1 mm 4 m/s 758 mmHg 92%
13:00 +3°C° 0.1 mm 4 m/s 759 mmHg 93%
14:00 +3°C° 0.3 mm 3 m/s 759 mmHg 92%
15:00 +3°C° 0.3 mm 3 m/s 759 mmHg 92%
16:00 +3°C° 0.3 mm 3 m/s 759 mmHg 91%
17:00 +3°C° 0.3 mm 3 m/s 760 mmHg 88%
18:00 +4°C° 0.3 mm 2 m/s 760 mmHg 85%
19:00 +4°C° 0.3 mm 2 m/s 761 mmHg 83%
20:00 +4°C° 0 mm 2 m/s 761 mmHg 83%
21:00 +4°C° 0 mm 1 m/s 761 mmHg 83%
22:00 +4°C° 0 mm 1 m/s 761 mmHg 83%
23:00 +4°C° 0 mm 1 m/s 761 mmHg 83%

Poimâine, 13 Aprilie, Marţi

Timp Temperatura Precipitaţii Vânt Presiune Umiditate
00:00 +4°C° 0 mm 1 m/s 761 mmHg 83%
01:00 +4°C° 0 mm 1 m/s 761 mmHg 84%
02:00 +3°C° 0 mm 2 m/s 761 mmHg 84%
03:00 +3°C° 0 mm 2 m/s 761 mmHg 84%
04:00 +2°C° 0 mm 2 m/s 761 mmHg 84%
05:00 +2°C° 0 mm 2 m/s 762 mmHg 82%
06:00 +2°C° 0 mm 3 m/s 762 mmHg 80%
07:00 +2°C° 0 mm 3 m/s 762 mmHg 78%
08:00 +3°C° 0 mm 3 m/s 763 mmHg 70%
09:00 +4°C° 0 mm 3 m/s 763 mmHg 63%
10:00 +5°C° 0 mm 3 m/s 763 mmHg 55%
11:00 +6°C° 0 mm 4 m/s 763 mmHg 49%
12:00 +7°C° 0 mm 4 m/s 762 mmHg 44%
13:00 +8°C° 0 mm 4 m/s 762 mmHg 38%
14:00 +8°C° 0 mm 4 m/s 762 mmHg 38%
15:00 +8°C° 0 mm 4 m/s 761 mmHg 38%
16:00 +8°C° 0 mm 4 m/s 761 mmHg 38%
17:00 +8°C° 0 mm 3 m/s 761 mmHg 45%
18:00 +7°C° 0 mm 3 m/s 762 mmHg 52%
19:00 +6°C° 0 mm 2 m/s 762 mmHg 60%
20:00 +5°C° 0 mm 2 m/s 762 mmHg 63%
21:00 +5°C° 0 mm 2 m/s 762 mmHg 67%
22:00 +4°C° 0 mm 2 m/s 762 mmHg 71%
23:00 +4°C° 0 mm 2 m/s 762 mmHg 74%

14 Aprilie, Miercuri

Timp Temperatura Precipitaţii Vânt Presiune Umiditate
00:00 +3°C° 0 mm 2 m/s 762 mmHg 77%
01:00 +3°C° 0 mm 2 m/s 763 mmHg 80%
02:00 +3°C° 0 mm 2 m/s 763 mmHg 82%
03:00 +2°C° 0 mm 2 m/s 763 mmHg 84%
04:00 +2°C° 0 mm 2 m/s 763 mmHg 86%
05:00 +1°C° 0 mm 3 m/s 763 mmHg 83%
06:00 +2°C° 0 mm 3 m/s 763 mmHg 80%
07:00 +2°C° 0 mm 3 m/s 763 mmHg 76%
08:00 +3°C° 0 mm 4 m/s 763 mmHg 68%
09:00 +5°C° 0 mm 4 m/s 763 mmHg 60%
10:00 +6°C° 0 mm 5 m/s 763 mmHg 52%
11:00 +7°C° 0 mm 5 m/s 762 mmHg 47%
12:00 +7°C° 0 mm 5 m/s 762 mmHg 43%
13:00 +8°C° 0 mm 5 m/s 762 mmHg 39%
14:00 +8°C° 0 mm 5 m/s 762 mmHg 41%
15:00 +8°C° 0 mm 5 m/s 761 mmHg 44%
16:00 +7°C° 0 mm 5 m/s 761 mmHg 46%
17:00 +6°C° 0.1 mm 5 m/s 761 mmHg 50%
18:00 +6°C° 0.1 mm 5 m/s 762 mmHg 54%
19:00 +5°C° 0.1 mm 4 m/s 762 mmHg 58%
20:00 +4°C° 0 mm 4 m/s 762 mmHg 61%
21:00 +4°C° 0 mm 4 m/s 762 mmHg 64%
22:00 +3°C° 0 mm 4 m/s 762 mmHg 66%
23:00 +3°C° 0 mm 4 m/s 762 mmHg 69%

15 Aprilie, Joi

Timp Temperatura Precipitaţii Vânt Presiune Umiditate
00:00 +1°C° 0 mm 4 m/s 762 mmHg 71%
01:00 +1°C° 0 mm 4 m/s 762 mmHg 74%
02:00 +1°C° 0 mm 4 m/s 762 mmHg 72%
03:00 +1°C° 0 mm 5 m/s 762 mmHg 70%
04:00 0°C° 0 mm 5 m/s 761 mmHg 69%
05:00 0°C° 0.1 mm 5 m/s 761 mmHg 71%
06:00 0°C° 0.1 mm 5 m/s 761 mmHg 74%
07:00 0°C° 0.1 mm 5 m/s 761 mmHg 77%
08:00 0°C° 1 mm 5 m/s 761 mmHg 83%
09:00 0°C° 1 mm 5 m/s 761 mmHg 89%
10:00 -1°C° 1 mm 5 m/s 761 mmHg 95%
11:00 0°C° 0.7 mm 5 m/s 762 mmHg 95%
12:00 0°C° 0.7 mm 5 m/s 762 mmHg 96%
13:00 0°C° 0.7 mm 4 m/s 762 mmHg 97%
14:00 0°C° 0.6 mm 4 m/s 762 mmHg 97%
15:00 +1°C° 0.6 mm 4 m/s 762 mmHg 97%
16:00 +1°C° 0.6 mm 4 m/s 762 mmHg 97%
17:00 +1°C° 0.6 mm 4 m/s 762 mmHg 97%
18:00 0°C° 0.6 mm 4 m/s 762 mmHg 97%
19:00 +1°C° 0.6 mm 3 m/s 763 mmHg 98%
20:00 +2°C° 0.4 mm 3 m/s 763 mmHg 96%
21:00 +2°C° 0.4 mm 3 m/s 763 mmHg 95%
22:00 +1°C° 0.4 mm 4 m/s 764 mmHg 94%
23:00 +2°C° 0.1 mm 3 m/s 764 mmHg 91%

16 Aprilie, Vineri

Timp Temperatura Precipitaţii Vânt Presiune Umiditate
00:00 +2°C° 0.1 mm 3 m/s 764 mmHg 89%
01:00 +2°C° 0.1 mm 3 m/s 764 mmHg 86%
02:00 +2°C° 0 mm 3 m/s 764 mmHg 87%
03:00 +2°C° 0 mm 3 m/s 764 mmHg 87%
04:00 +2°C° 0 mm 3 m/s 765 mmHg 87%
05:00 +2°C° 0 mm 3 m/s 765 mmHg 87%
06:00 +3°C° 0 mm 3 m/s 765 mmHg 87%
07:00 +3°C° 0 mm 3 m/s 766 mmHg 87%
08:00 +4°C° 0 mm 3 m/s 766 mmHg 80%
09:00 +6°C° 0 mm 4 m/s 766 mmHg 73%
10:00 +7°C° 0 mm 4 m/s 766 mmHg 66%
11:00 +8°C° 0 mm 4 m/s 766 mmHg 61%
12:00 +10°C° 0 mm 4 m/s 766 mmHg 57%
13:00 +12°C° 0 mm 4 m/s 766 mmHg 52%
14:00 +12°C° 0 mm 4 m/s 766 mmHg 52%
15:00 +12°C° 0 mm 4 m/s 766 mmHg 51%
16:00 +12°C° 0 mm 4 m/s 765 mmHg 51%
17:00 +10°C° 0 mm 4 m/s 765 mmHg 60%
18:00 +9°C° 0 mm 3 m/s 765 mmHg 68%
19:00 +7°C° 0 mm 2 m/s 766 mmHg 77%
20:00 +5°C° 0 mm 3 m/s 766 mmHg 78%
21:00 +4°C° 0 mm 3 m/s 766 mmHg 79%
22:00 +4°C° 0 mm 3 m/s 766 mmHg 80%
23:00 +3°C° 0 mm 3 m/s 766 mmHg 82%
Arată mai mult

Formular de consimțământ

Meteoprog și furnizorii noștri de servicii pot stoca și accesa date personale, precum cookies, identificatori de dispozitiv sau alte tehnologii similare pe dispozitivul dumneavoastră și procesa astfel de date pentru a personaliza conținutul și reclamele, dar și pentru a oferi caracteristici de social media și pentru a analiza traficul.

  • Stocarea și/sau accesarea informațiilor pe dispozitivul dumneavoastră

    Cookies, identificatori de dispozitiv sau alte informații pot fi stocate sau accesate pe dispozitiv în scopurile indicate mai sus.

  • Reclame și conținut personalizat, evaluarea reclamelor și a conținutului, informații despre audiențe și dezvoltarea produselor

    Reclamele și conținutul pot fi personalizate pe baza unui profil. Pot fi adăugate date suplimentare pentru a personaliza mai bine reclamele și conținutul. Performanța reclamelor și conținutului poate fi măsurată. Pot fi obținute informații despre utilizatorii care au văzut reclamele și conținutul. Aceste date pot fi utilizate pentru a dezvolta sau îmbunătăți experiența utilizatorilor, sistemele și software-ul.

Dând clic pe ‘Sunt de acord’, permiteți utilizarea cookie-urilor menționate, a identificatorilor de dispozitiv, balizelor web sau altor tehnologii similare. Setările pot fi modificate din browser-ul dispozitivului dumneavoastră.

În anumite scopuri, interesele legitime pot prima asupra consimțământului. Puteți citi mai multe informații în acest sens în Politica privind Confidențialitatea Datelor și Cookie.